Location: Daouli
(14.8671°N, 3.2030°W)
Time: 01:57:55
(UTC+00:00)

CZ-2D R/B - Pass Details

Date: 29 October 2020
Orbit: 522 x 537 km, 97.4° (Epoch: 02 December)

Event Time Altitude Azimuth Distance (km) Brightness Sun altitude
Rises 18:47:05 0° 165° (SSE) 2,658 6.8 -15.5°
Reaches altitude 10° 18:49:12 10° 163° (SSE) 1,767 5.8 -16.0°
Maximum altitude 18:53:00 74° 79° (E) 549 3.1 -16.9°
Drops below altitude 10° 18:56:47 10° 354° (N) 1,760 5.9 -17.8°
Sets 18:58:53 0° 352° (N) 2,647 6.8 -18.3°
